Location: Brookview Estates
(36.0476°N, 86.6931°W)
Time: 23:04:07
(UTC+00:00)

Cosmos 1626 - Pass Details

Date: 30 March 2020
Orbit: 493 x 494 km, 82.5° (Epoch: 23 May)

Event Time Altitude Azimuth Distance (km) Brightness Sun altitude
Rises 01:11:25 0° 360° (N) 2,580 6.0 -13.7°
Reaches altitude 10° 01:13:35 10° 6° (N) 1,694 4.9 -14.1°
Maximum altitude 01:17:10 46° 80° (E) 675 2.3 -14.8°
Enters shadow 01:19:06 23° 143° (SE) 1,076 3.3 -15.2°
